ITARNLAS2 Weather Reports


time (UTC)temp
C
wind
direction
speed
KPH
gust
KPH
rain 1hr
cm
rain 24hr
cm
rain mn
cm
humidity
%
barometer
mb
20260504110105 14 272 1.6 6.4 0.00 0.13 0.13 100 1013.4
20260504081605 13 123 1.6 8.0 0.00 0.00 0.00 100 1013.8
20260504044556 12 167 1.6 11.3 0.00 0.00 0.00 100 1012.9
20260504043104 11 197 3.2 11.3 0.00 0.00 0.00 100 1012.6
20260504041554 11 182 1.6 14.5 0.00 0.00 0.00 100 1012.7
20260504040132 11 153 3.2 12.9 0.00 0.00 0.00 100 1012.7
20260504034601 11 96 4.8 11.3 0.00 0.00 0.00 100 1012.8
20260504033056 11 90 4.8 14.5 0.00 0.00 0.00 100 1012.8
20260504031606 11 0 3.2 16.1 0.00 0.00 0.00 100 1013.1
20260504030058 11 117 1.6 20.9 0.00 0.00 0.00 100 1013.2
20260504024603 11 157 8.0 24.1 0.00 0.00 0.00 100 1013.4
20260504023058 11 91 6.4 20.9 0.00 0.00 0.00 100 1013.3
20260504021557 11 204 6.4 20.9 0.00 0.00 0.00 100 1013.5
20260504020109 11 183 4.8 16.1 0.00 0.00 0.00 100 1013.7
20260504014556 11 233 4.8 22.5 0.00 0.00 0.00 100 1013.6
20260504013053 11 81 6.4 24.1 0.00 0.00 0.00 100 1013.5
20260504011553 11 81 1.6 17.7 0.00 0.00 0.00 100 1013.6
20260504010056 11 113 8.0 22.5 0.00 0.00 0.00 100 1013.6
20260504004555 11 138 8.0 24.1 0.00 0.00 0.00 100 1013.8
20260504003057 11 148 3.2 17.7 0.00 0.00 0.00 100 1013.7
20260504001556 11 74 8.0 22.5 0.00 0.00 0.00 100 1013.9
20260504000101 11 264 9.7 27.4 0.00 0.00 0.00 100 1014.1
20260503234624 11 17 8.0 30.6 0.00 0.00 0.00 100 1014.2
20260503233058 10 77 11.3 27.4 0.00 0.00 0.00 100 1014.2
20260503231552 11 116 9.7 29.0 0.00 0.00 0.00 100 1014.1
20260503230056 11 76 8.0 24.1 0.00 0.00 0.00 100 1014.0
20260503224553 10 151 12.9 32.2 0.00 0.00 0.00 100 1014.2
20260503223056 11 11 8.0 24.1 0.00 0.00 0.00 100 1014.3
20260503221606 11 211 6.4 33.8 0.00 0.00 0.00 100 1014.6
20260503220059 11 71 9.7 32.2 0.00 0.00 0.00 100 1014.5
20260503214556 11 207 9.7 33.8 0.00 0.00 0.00 100 1014.4
20260503213054 11 258 11.3 37.0 0.00 0.00 0.00 100 1014.4
20260503211555 11 96 11.3 30.6 0.00 0.00 0.00 100 1014.3
20260503210057 11 140 6.4 43.5 0.00 0.00 0.00 100 1014.5
20260503204557 11 115 9.7 32.2 0.00 0.00 0.00 100 1014.4
20260503203057 11 180 6.4 30.6 0.00 0.00 0.00 100 1014.4
20260503201553 11 148 6.4 30.6 0.00 0.00 0.00 100 1014.1
20260503200057 11 123 11.3 27.4 0.00 0.00 0.00 100 1014.3
20260503194600 11 136 9.7 24.1 0.00 0.00 0.00 100 1014.1
20260503193053 11 133 8.0 25.7 0.00 0.00 0.00 100 1014.0
20260503191555 11 72 6.4 25.7 0.00 0.00 0.00 100 1014.1
20260503190055 11 92 8.0 32.2 0.00 0.00 0.00 100 1014.1
20260503184557 11 182 8.0 32.2 0.00 0.00 0.00 100 1014.1
20260503183057 11 153 9.7 35.4 0.00 0.00 0.00 100 1014.1
20260503181555 11 148 9.7 30.6 0.00 0.00 0.00 100 1014.0
20260503174559 11 105 11.3 30.6 0.00 0.00 0.00 100 1014.2
20260503173100 11 66 11.3 30.6 0.00 0.00 0.00 100 1014.1
20260503171559 12 135 12.9 33.8 0.00 0.00 0.00 100 1014.3